Location: Bauerbach
(50.4985°N, 10.3912°E)
Time: 03:13:45
(UTC+00:00)

Envisat - Visible Passes

Search period start: 09 March 2026 00:00
Search period end: 19 March 2026 00:00
Orbit: 761 x 763 km, 98.4° (Epoch: 8 March)

Date Brightness Start Highest point End Pass type
(mag) Time Alt. Az. Time Alt. Az. Time Alt. Az.
9 Mar 4.9 01:34:38 10° NNE 01:37:13 27° NE 01:37:13 27° NE visible
9 Mar 4.1 03:13:51 10° N 03:17:21 29° NW 03:17:21 29° NW visible
10 Mar 5.5 00:57:29 10° NE 00:59:05 16° ENE 00:59:05 16° ENE visible
10 Mar 3.8 02:35:42 10° N 02:39:14 43° NNW 02:39:14 43° NNW visible
10 Mar 4.9 04:16:44 10° NNW 04:18:40 12° NW 04:19:22 12° WNW visible
11 Mar 4.2 01:57:51 10° NNE 02:01:06 39° NNE 02:01:06 39° NNE visible
11 Mar 4.4 03:37:35 10° N 03:41:14 22° NW 03:41:14 22° NW visible
12 Mar 5.0 01:20:21 10° NNE 01:22:59 25° NE 01:22:59 25° NE visible
12 Mar 3.8 02:59:13 10° N 03:03:07 37° NW 03:03:07 37° NW visible
13 Mar 5.6 00:43:30 10° NE 00:44:51 14° ENE 00:44:51 14° ENE visible
13 Mar 3.6 02:21:11 10° NNE 02:24:59 51° N 02:24:59 51° N visible
13 Mar 4.7 04:01:35 10° NNW 04:04:26 15° NW 04:05:07 15° WNW visible
14 Mar 4.3 01:43:27 10° NNE 01:46:52 38° NE 01:46:52 38° NE visible
14 Mar 4.1 03:22:51 10° N 03:27:00 27° WNW 03:27:00 27° WNW visible
15 Mar 5.1 01:06:08 10° NE 01:08:44 22° ENE 01:08:44 22° ENE visible
15 Mar 3.4 02:44:38 10° N 02:48:52 48° NW 02:48:52 48° NW visible
15 Mar 5.0 04:26:30 10° NW 04:27:23 10° NW 04:28:17 10° WNW visible
16 Mar 5.7 00:29:54 10° ENE 00:30:37 11° ENE 00:30:37 11° ENE visible
16 Mar 3.5 02:06:42 10° NNE 02:10:45 56° NNE 02:10:45 56° NNE visible
16 Mar 4.5 03:46:40 10° NNW 03:50:09 19° NW 03:50:53 19° WNW visible
17 Mar 4.4 01:29:06 10° NNE 01:32:37 34° ENE 01:32:37 34° ENE visible
17 Mar 3.7 03:08:11 10° N 03:12:45 35° WNW 03:12:45 35° WNW visible
18 Mar 5.3 00:52:02 10° NE 00:54:30 18° ENE 00:54:30 18° ENE visible
18 Mar 3.1 02:30:05 10° N 02:34:38 63° NW 02:34:38 63° NW visible
18 Mar 4.9 04:10:50 10° NNW 04:13:10 13° NW 04:14:46 12° WNW visible
